www.pogodaiklimat.ru

Погода и климат >> Архив погоды >> Россия >> Красноярский край >> Хатанга


АРХИВ ПОГОДЫ в Хатанге

Время (UTC), дата Ветер
(напр.,м/с)
 
Видим.   Явления Облачность Т
(С)
Тd
(С)
f
(%)
Тe
(С)
Тes
(С)
Комфортность P
(гПа)
Po
(гПа)
Тmin
(С)
Tmax
(С)
R
(мм)
R24
(мм)
S
(см)
06 13.05 СВ 7 20 км позёмок {ливн. осадки} 9/5 400 м
[Sc Ac trans]
-5.7 -10.4 69 -14 -13 прохладно 1028.0 1023.7
09 13.05 В 7
{11}
20 км {метель} 9/5 600 м
[Sc Ac trans]
-5.1 -8.6 76 -13 -13 по сезону 1028.7 1024.5
12 13.05 СВ 6 20 км {метель} 9/6 630 м
[Sc Ac trans]
-6.1 -7.6 89 -14 -14 прохладно 1029.9 1025.6 -4.9 0.0
15 13.05 СВ 4 20 км 9/5 450 м
[Sc Ac und]
-6.4 -8.0 88 -13 -13 по сезону 1030.6 1026.3
18 13.05 СВ 5 20 км 9/6 300 м
[Sc Ac und]
-8.5 -9.6 92 -16 -16 по сезону 1030.6 1026.3
21 13.05 СВ 5 20 км 9/6 300 м
[Sc Ac und]
-9.7 -10.9 91 -18 -17 по сезону 1030.6 1026.3
00 14.05 СВ 4 10 км слаб. ливневой снег 9/6 570 м
[Cb cap Ac und]
-9.9 -11.1 91 -17 -17 по сезону 1031.0 1026.6 -9.9 0.0 47
03 14.05 СВ 6 20 км {ливн. осадки} 3/3 300 м
[Sc diur, vesp]
-8.7 -11.9 78 -17 -15 прохладно 1030.9 1026.6
06 14.05 С 6 20 км {ливн. осадки} 1/0
[Ac trans]
-7.9 -11.5 75 -16 -13 холодно 1030.2 1026.0
09 14.05 С 5 20 км 1/0
[Ci sp]
-7.9 -11.5 75 -15 -13 прохладно 1029.9 1025.7
12 14.05 СВ 4 20 км 1/0
[Ci fib]
-9.2 -12.5 77 -16 -15 холодно 1030.0 1025.7 -7.4
15 14.05 СВ 3 20 км 6/0
[Ac trans Ci fib]
-11.1 -13.9 80 -17 -17 прохладно 1029.9 1025.5
18 14.05 СВ 4 20 км 8/0
[Ac trans Ci fib]
-14.4 -16.4 85 -22 -22 холодно 1029.3 1024.8
21 14.05 СВ 2 20 км 8/0
[Ac trans Ci fib]
-15.8 -17.7 85 -21 -21 холодно 1029.4 1024.9
00 15.05 СВ 2 20 км 6/0
[Ac trans Ci fib]
-13.9 -16.2 83 -19 -16 прохладно 1029.0 1024.7 -15.9 47
03 15.05 СВ 2 20 км 5/0
[Ac trans Ci fib]
-9.6 -13.4 74 -14 -8 по сезону 1028.9 1024.6
06 15.05 С 2 20 км 4/0
[Ac trans Ci fib]
-8.2 -12.4 72 -13 -5 прохладно 1028.3 1024.0
09 15.05 СВ 4 20 км 4/0
[Ac trans Ci fib]
-8.7 -10.6 86 -16 -13 холодно 1028.2 1023.9
12 15.05 СВ 4 20 км 4/0
[Ac trans Ci fib]
-9.1 -11.6 82 -16 -15 холодно 1028.4 1024.0 -8.2
15 15.05 СВ 2 20 км 3/1 300 м
[Sc Ac lent]
-11.3 -13.5 84 -16 -16 прохладно 1028.4 1024.1
18 15.05 В 2 20 км 4/3 300 м
[Sc Ac trans]
-13.7 -14.3 95 -18 -18 прохладно 1028.3 1023.9
21 15.05 ЮВ 3 20 км 9/9 540 м
[Sc]
-12.4 -14.4 85 -18 -18 прохладно 1028.2 1023.9
00 16.05 ЮВ 4 20 км 9/9 300 м
[Sc]
-9.8 -13.9 72 -17 -16 прохладно 1028.2 1023.8 47
03 16.05 В 4 20 км 8/4 600 м
[Sc Ac trans]
-8.7 -12.5 74 -15 -14 прохладно 1027.9 1023.6
06 16.05 ЮВ 4 20 км 6/4 600 м
[Sc Ac trans]
-6.9 -13.1 61 -13 -11 прохладно 1027.4 1023.2
09 16.05 ЮВ 4 20 км 4/3 600 м
[Sc Ac trans Ci fib]
-6.2 -12.1 63 -12 -10 по сезону 1027.8 1023.5
12 16.05 ЮВ 4 20 км 3/3 600 м
[Sc Ac trans]
-6.7 -12.8 62 -13 -12 прохладно 1027.8 1023.5 -6.2
15 16.05 В 3 20 км 3/3 600 м
[Sc Ac trans]
-8.8 -12.6 74 -15 -14 прохладно 1028.1 1023.7
18 16.05 В 4 20 км 3/1 600 м
[Sc Ac trans]
-12.3 -15.0 80 -19 -19 прохладно 1027.8 1023.4
21 16.05 В 3 20 км 3/1 600 м
[Sc Ci fib]
-12.4 -15.1 80 -18 -18 прохладно 1027.7 1023.3
00 17.05 В 5 20 км 1/1 600 м
[Sc]
-8.9 -13.8 68 -16 -15 по сезону 1028.0 1023.6 -13.0 47
03 17.05 В 4 20 км ясно -6.1 -12.5 60 -12 -7 по сезону 1028.1 1023.8
06 17.05 В 4 20 км 1/0
[Ac lent]
-5.3 -12.8 56 -11 -6 по сезону 1028.2 1023.9
09 17.05 ЮВ 4 20 км 3/0
[Ac trans Ci fib]
-5.4 -12.4 58 -11 -8 по сезону 1028.9 1024.6
12 17.05 В 5 20 км 3/0
[Ac trans Ci fib]
-5.8 -12.5 59 -13 -12 прохладно 1024.9 -5.1
15 17.05 В 3 20 км 6/0
[Ac lent]
-8.1 -13.3 66 -14 -14 по сезону 1029.6 1025.3
18 17.05 В 5 20 км 3/0
[Ci fib]
-11.6 -15.6 72 -20 -20 холодно 1029.5 1025.2
21 17.05 В 5 20 км 3/0
[Ci fib]
-12.0 -15.9 73 -20 -20 холодно 1029.3 1025.0
00 18.05 В 5 20 км 3/0
[Ci fib]
-8.4 -14.0 64 -16 -14 прохладно 1029.0 1024.8 -12.2 42
03 18.05 В 5 20 км 3/0
[Ci fib]
-4.8 -12.5 55 -11 -8 по сезону 1028.8 1024.6
06 18.05 СВ 4 20 км 3/0
[Ci fib]
-2.7 -12.2 48 -8 -3 по сезону 1028.2 1024.0
09 18.05 В 4 20 км 1/0
[Ci fib]
-1.6 -10.3 51 -7 -3 по сезону 1027.5 1023.3
12 18.05 СВ 4 20 км 1/0
[Ci fib]
-2.3 -10.5 53 -8 -7 по сезону 1027.2 1023.0 -1.5
15 18.05 СВ 3 20 км ясно -7.2 -11.5 71 -13 -13 по сезону 1026.9 1022.6
18 18.05 СВ 3 20 км ясно -11.9 -14.4 82 -18 -18 прохладно 1026.2 1021.8
21 18.05 СВ 3 20 км ясно -14.7 -16.7 85 -21 -21 очень
холодно
1025.1 1020.6
00 19.05 СВ 4 20 км 1/0
[Ci fib]
-14.0 -16.0 85 -22 -19 очень
холодно
1024.0 1019.5 -14.7 42
03 19.05 СВ 5 20 км 3/0
[Ci fib]
-10.3 -12.3 85 -18 -14 очень
холодно
1022.8 1018.4
06 19.05 С 5 20 км 3/0
[Ci fib]
-6.6 -9.4 80 -14 -10 холодно 1021.5 1017.2
09 19.05 С 6 20 км 3/0
[Ci fib]
-5.3 -8.8 76 -13 -11 прохладно 1020.1 1015.9
12 19.05 СВ 7 20 км 8/0
[Ci sp]
-7.4 -10.3 80 -16 -16 холодно 1019.5 1015.3 -5.2
15 19.05 СВ 6 20 км 8/0
[Ac lent Cs]
-10.6 -13.1 82 -19 -19 очень
холодно
1018.9 1014.7
18 19.05 СВ 5 20 км 8/0
[Ac trans Ci sp]
-14.1 -16.4 83 -23 -23 очень
холодно
1018.4 1014.0
21 19.05 СВ 7 20 км 9/0
[Ac trans Ci sp]
-13.8 -14.4 95 -24 -24 очень
холодно
1017.1 1012.7
00 20.05 СВ 7 20 км 8/0
[Ac trans Ci sp]
-9.7 -13.4 74 -19 -18 холодно 1016.1 1011.9 42

 

Местоположение метеостанции Хатанга (Красноярский край, Россия): широта 71.98 долгота 102.47 высота над уровнем моря 33 м.

В архиве по умолчанию представлена погода в Хатанге за последнюю неделю. Архивные данные за месяц целиком и за предыдущие месяцы, начиная с января 2011 года, Вы можете получить, выбрав интересующий диапазон дат из раскрывающегося списка и нажав кнопку "Ввод!".


*Определитесь, кто Вы:
робот инопланетянин человек

Внимание! Время в таблицах - всемирное. Для получения местного времени необходимо прибавить поправку, которая равна 7 ч.

Смотрите также архив погоды в соседних городах и на ближайших метеорологических станциях:

Погода в Волочанке (Красноярский край, Россия) (303 км)
Погода в Анабаре (Якутия, Россия) (391 км)
Погода в Саскылахе (Якутия, Россия) (396 км)
Погода на Острове Преображения (Якутия, Россия) (447 км)
Погода в Джалинде (Якутия, Россия) (460 км)
Погода в Крестах Таймырских (Красноярский край, Россия) (462 км)
Погода в Оленеке (Якутия, Россия) (537 км)
Погода на Мысе Стерлегова (Красноярский край, Россия) (568 км)
Погода в Ярольине (Якутия, Россия) (587 км)
Погода на Усть-Оленеке (Якутия, Россия) (589 км)

Пояснения к столбцам:

Ветер - указаны скорость ветра в м/с - средняя за 10 мин, порывы в срок и между сроками (в фигурных скобках) и направление, откуда дует ветер: С - северный, СВ - северо-восточный, В - восточный, ЮВ - юго-восточный, Ю - южный, ЮЗ - юго-западный, З - западный, СЗ - северо-западный.
Видимость - горизонтальная дальность видимости в метрах или километрах. При видимости от 1 до 10 км при отсутствии осадков обычно наблюдается дымка, при ухудшении видимости до 1 км и менее - туман. В сухую погоду видимость может ухудшаться дымом, пылью или мглою.
Явления - указаны атмосферные явления, наблюдавшиеся в срок или в последний час перед сроком; фигурными скобками обозначены явления, наблюдавшиеся между сроками (за 1-3 часа до срока); квадратными скобками обозначены град или гололедные отложения с указанием их диаметра в мм.
Облачность - указаны через наклонную черту общая и нижняя облачность в баллах и высота нижней границы облаков в метрах; квадратными скобками обозначены формы облаков: Ci - перистые, Cs - перисто-слоистые, Cc - перисто-кучевые, Ac - высококучевые, As - высокослоистые, Sc - слоисто-кучевые, Ns - слоисто-дождевые, Cu - кучевые, Cb - кучево-дождевые. Подробнее классификацию облаков см. в Атласе облаков (PDF).
T - Температура воздуха - температура, измеренная на высоте 2 м над землей.
Td - Температура точки росы - температура, при понижении до которой содержащийся в воздухе водяной пар достигнет насыщения.
f - Относительная влажность воздуха - влажноcть воздуха, измеренная на высоте 2 м над землей.
Te - Эффективная температура - температура, которую ощущает одетый по сезону человек в тени. Характеристика душности погоды. При расчете учитывается влияние влажности воздуха и скорости ветра на теплоощущения человека.
Tes - Эффективная температура на солнце - температура, которую ощущает человек, с поправкой на солнечный нагрев. Характеристика знойности погоды. Зависит от высоты солнца над горизонтом, облачности и скорости ветра. Ночью, в пасмурную погоду, а также при ветре 12 м/с и более поправка равна нулю.
P - Атмосферное давление - приведенное к уровню моря атмосферное давление.
Po - Атмосферное давление - измеренное на уровне метеостанции атмосферное давление.
Tmin - Минимальная температура - минимум температуры воздуха на высоте 2 м над землей.
Tmax - Максимальная температура - максимум температуры воздуха на высоте 2 м над землей.
R - Количество осадков - Количество выпавших осадков за период времени, мм. При наведении курсора мыши на число - период времени, за который выпало указанное количество осадков.
R24 - Количество осадков - Количество выпавших осадков за 24 часа, мм.
S - Снежный покров - Высота снежного покрова, см. При наведении курсора мыши на число - состояние снежного покрова и степень покрытия местности в баллах.